GSAT-7A

Last updated on Wed Sep 09 2026 00:03:02 GMT+0000 (Coordinated Universal Time)

1 43864U 18105A 26251.45755988 .00000005 00000+0 00000+0 0 9990 2 43864 0.0146 130.6805 0001861 52.5779 31.7599 1.00271833 28281
UTC large
Height (km)
Speed (km/s)
/
Latitude / Longitude
Inclination (degrees)
Orbital Period (minutes)
Azimuth
Elevation
Range (km)
Doppler Factor

Next 0 passes for location: London (51.5072 / 0.1276)

No passes found over London.
GSAT-7A